Location: Aucun
(42.9667°N, 0.1667°W)
Time: 18:20:40
(UTC+00:00)

Cosmos 1943 - Pass Details

Date: 17 February 2020
Orbit: 832 x 851 km, 71.0° (Epoch: 28 March)

Event Time Altitude Azimuth Distance (km) Brightness Sun altitude
Rises 04:57:16 0° 183° (S) 3,361 6.3 -22.4°
Reaches altitude 10° 04:59:47 10° 177° (S) 2,432 5.6 -21.9°
Maximum altitude 05:05:01 43° 107° (ESE) 1,155 4.3 -21.0°
Drops below altitude 10° 05:10:18 10° 37° (NE) 2,456 6.1 -20.0°
Sets 05:12:51 0° 31° (NNE) 3,397 6.8 -19.5°
